Simultaneous Nadir Overpasses (SNOs) Predictions

Prediction of SNOs between LANDSAT-8 and METOP-B Satellite Orbit:

Table of predicted SNOs for the next 14.0 days since TLE Epoch: 12/17/2016
Index Date (LANDSAT-8) Time (LANDSAT-8) Lat,Lon (LANDSAT-8) SZA (LANDSAT-8 ) Date (METOP-B) Time (METOP-B) Lat,Lon (METOP-B) SZA (METOP-B ) Distance(km) Time Diff (sec)
1 12/18/2016 08:52:02 81.10, 86.41 106.45 12/18/2016 08:51:43 81.09, 86.37 106.44 0.87 19
2 12/18/2016 09:41:28 -81.12,-105.66 73.51 12/18/2016 09:42:23 -81.11,-105.83 73.51 3.06 55
3 12/21/2016 04:26:16 81.10, 152.87 106.46 12/21/2016 04:26:06 81.09, 152.75 106.44 2.20 10
4 12/21/2016 05:15:42 -81.12, -39.18 73.50 12/21/2016 05:16:45 -81.12, -39.05 73.46 2.27 63
5 12/23/2016 23:11:26 -80.46, 43.84 74.83 12/23/2016 23:10:12 -80.66, 43.15 74.74 25.41 74
6
